Regional Weather Roundup
Issued by NWS State College, PA

Home | Current Version | Previous Version | Text Only | Print | Product List | Glossary Off
Versions: 1 2 3 4 5 6 7 8 9 10 11 12 13 14 15 16 17 18 19 20 21 22 23 24 25 26 27 28 29 30 31 32 33 34 35 36 37 38 39 40 41 42 43 44 45 46 47 48 49 50

943
ASUS41 KCTP 190810
RWRCTP

REGIONAL WEATHER ROUNDUP
NATIONAL WEATHER SERVICE STATE COLLEGE PA
300 AM EST SUN FEB 19 2017

Note: "fair" indicates few or no clouds below 12,000 feet with no
significant weather and/or obstructions to visibility.

* = STATION THAT DOES NOT REPORT PRECIPITATION /E.G. RAIN...SNOW...ETC/
    THUNDER OR FOG.

PAZ002>004-007>009-013>016-020>023-029>032-190900-
WESTERN PENNSYLVANIA

CITY           SKY/WX    TMP DP  RH WIND       PRES   REMARKS
ERIE           CLEAR     48  38  68 SW6       29.81R
MEADVILLE      CLEAR     48  37  65 SW8       29.81R
FRANKLIN*      CLEAR     46  36  66 SW12      29.83R
NEW CASTLE     FAIR      46  40  79 S6        29.86R
BEAVER COUNTY  NOT AVBL
BUTLER*        CLOUDY    46  39  76 SW10      29.86R
PITTSBURGH INT CLOUDY    49  43  80 SW7       29.85R
PITTSBURGH     PTCLDY    49  40  71 SW12      29.85S
INDIANA*       CLOUDY    48  43  81 W8        29.87S
LATROBE        MOCLDY    48  41  76 S9        29.87S
WASHINGTON CO* CLOUDY    48  39  71 SW10      29.89S
$$

PAZ004>006-010>012-017>019-024>028-033>037-041-042-045-046-049>053-190900-
CENTRAL PENNSYLVANIA

CITY           SKY/WX    TMP DP  RH WIND       PRES   REMARKS
BRADFORD       CLEAR     46  38  73 W8        29.78R
DUBOIS         CLOUDY    44  34  67 SW9       29.80R
CLEARFIELD       N/A    N/A N/A N/A MISG      29.81R
JOHNSTOWN      PTCLDY    46  40  79 W13       29.82F
ALTOONA        CLOUDY    52  40  63 W8        29.82S
STATE COLLEGE  CLOUDY    50  37  60 W12       29.80S
WILLIAMSPORT   CLOUDY    36  31  82 CALM      29.77R
SELINSGROVE    CLOUDY    38  34  85 CALM      29.78R
FT INDIANTOWN  CLOUDY    50  32  49 SW6       29.76R
CAPITAL CITY   CLOUDY    50  34  54 SW5       29.78R
HARRISBURG     CLOUDY    48  37  65 NW3       29.77R
YORK           CLOUDY    59  35  40 W5        29.78R
$$

PAZ038>040-043-044-047-048-054-055-060>062-067>071-190900-
EASTERN PENNSYLVANIA

CITY           SKY/WX    TMP DP  RH WIND       PRES   REMARKS
SCRANTON       CLOUDY    50  34  54 S3        29.73R
MOUNT POCONO   CLOUDY    48  33  56 W13       29.71R
ALLENTOWN      CLOUDY    48  32  53 SW7       29.73R
QUAKERTOWN*    MOSUNNY   45  32  61 SW3       29.75S
READING        CLOUDY    57  34  41 W8        29.74S
LANCASTER      PTCLDY    53  34  48 W3        29.76S
COATESVILLE    CLOUDY    57  32  38 VRB6G13   29.77R
POTTSTOWN      CLOUDY    49  32  52 CALM      29.76S
BLUE BELL      MOCLDY    52  34  50 CALM      29.74F
DOYLESTOWN     MOCLDY    53  32  44 SW6       29.73S
WILLOW GROVE   NOT AVBL
NORTH PHILA    CLOUDY    56  35  45 CALM      29.75F
PHILADELPHIA   CLOUDY    50  37  61 CALM      29.75F
$$




USA.gov is the U.S. government's official web portal to all federal, state and local government web resources and services.